Tracking 31027 objects as of 19-Jul-2025
HD Live streaming from Space Station
objects crossing your sky now

STARLINK-30848

Track STARLINK-30848 now!
10-day predictions
STARLINK-30848 is classified as:


NORAD ID: 58240
Int'l Code: 2023-171L
Perigee: 565.6 km
Apogee: 566.8 km
Inclination: 43.0 °
Period: 95.8 minutes
Semi major axis: 6937 km
RCS: Unknown
Launch date: November 8, 2023
Source: United States (US)
Launch site: AIR FORCE EASTERN TEST RANGE (AFETR)
Your satellite tracking list
ABS 3
Track 1 satellite(s)




NASA's NSSDC Master Catalog

Two Line Element Set (TLE):
1 58240U 23171L   25198.12198730 -.00000267  00000-0 -46650-5 0  9992
2 58240  43.0033 127.3782 0000870 268.5236  91.5506 15.02531393 94271
Source of the keplerian elements: AFSPC